GW0339 Weather Reports


time (UTC)temp
F
wind
direction
speed
knots
gust
knots
rain 1hr
in
rain 24hr
in
rain mn
in
humidity
%
barometer
mb
20260505095201 59 0 0.0 0.0 0.00 0.00 0.00 66 1024.8
20260505041231 60 180 0.9 5.2 0.00 0.00 0.00 67 1022.2
20260505035049 60 141 1.7 6.1 0.00 0.00 0.00 65 1022.3
20260505034049 60 186 1.7 5.2 0.00 0.00 0.00 64 1022.3
20260505033111 60 194 1.7 8.7 0.00 0.00 0.00 64 1022.3
20260505032131 61 192 0.9 8.7 0.00 0.00 0.00 62 1022.2
20260505031141 61 250 0.9 4.3 0.00 0.00 0.00 61 1022.2
20260505030134 61 182 0.0 3.5 0.00 0.00 0.00 62 1022.2
20260505024008 61 292 0.9 6.1 0.00 0.00 0.00 61 1022.5
20260505022959 61 273 0.9 6.1 0.00 0.00 0.00 62 1022.5
20260505021930 62 326 1.7 7.0 0.00 0.00 0.00 61 1022.6
20260505020918 62 263 1.7 7.0 0.00 0.00 0.00 63 1022.6
20260505015843 61 284 0.9 6.1 0.00 0.00 0.00 65 1022.8
20260505014839 59 248 1.7 7.0 0.00 0.00 0.00 66 1022.9
20260505012731 59 209 1.7 7.0 0.00 0.00 0.00 66 1023.1
20260505011752 59 229 1.7 7.8 0.00 0.00 0.00 66 1022.9
20260505005629 59 255 1.7 7.8 0.00 0.00 0.00 68 1022.8
20260505004557 59 273 1.7 4.3 0.00 0.00 0.00 68 1022.8
20260505004004 59 208 0.9 6.1 0.00 0.00 0.00 68 1022.7
20260505002942 59 267 1.7 9.6 0.00 0.00 0.00 70 1022.7
20260505001938 58 121 1.7 9.6 0.00 0.00 0.00 71 1022.5
20260505001933 58 189 1.7 9.6 0.00 0.00 0.00 71 1022.5
20260504130417 58 312 2.6 7.8 0.00 0.01 0.01 77 1015.8
20260504110406 59 325 5.2 10.4 0.00 0.01 0.01 79 1014.5